Copper Mountain, CO

7:21 AM MDT on April 24, 2017 (GMT -0600)
Copper Mountain

Weather History for KCCU - March, 2014

Change the Weather History Date:

Friday, March 7, 2014

  Actual Average Record
Temperature  
Mean Temperature 24 °F -  
Max Temperature 28 °F - 37 °F (2013)
Min Temperature 19 °F - 0 °F (2008)
Degree Days  
Heating Degree Days 42    
Month to date heating degree days  
Cooling Degree Days 0    
Month to date cooling degree days  
Moisture  
Dew Point 18 °F    
Average Humidity 78    
Maximum Humidity 86    
Minimum Humidity 69    
Precipitation  
Precipitation 0.00 in - 0.12 in (2003)
Sea Level Pressure  
Sea Level Pressure 29.98 in    
Wind  
Wind Speed 11 mph (West)    
Max Wind Speed 28 mph    
Max Gust Speed 34 mph    
Visibility 2 miles    
Events Snow    
T = Trace of Precipitation, MM = Missing Value Source: NWS Daily Summary

Daily Weather History Graph

Daily Weather History Graph

Search for Another Location

Airport or City:

Trip Planner

Search our weather history database for the weather conditions in past years. The results will help you decide how hot, cold, wet, or windy it might be!

Date:

Astronomy

Mar. 07, 2014 Rise Set
Actual Time 6:28 AM MST 6:03 PM MST
Civil Twilight 6:01 AM MST 6:30 PM MST
Nautical Twilight 5:30 AM MST 7:01 PM MST
Astronomical Twilight 4:59 AM MST 7:32 PM MST
Moon 10:25 AM MST (3/7) 12:09 AM MST (3/7)
Length of Visible Light 12h 28m
Length of Day
11h 35m
Waxing Crescent, 42% of the Moon is Illuminated
Mar 7
Waxing Crescent
Mar 8
First Quarter
Mar 16
Full
Mar 23
Last Quarter
Mar 30
New

Hourly Weather History & Observations

Time (MST) Temp. Windchill Dew Point Humidity Pressure Visibility Wind Dir Wind Speed Gust Speed Precip Events Conditions
12:16 AM 24.8 °F 15.3 °F 17.6 °F 74% 30.01 in 7.0 mi WSW 9.2 mph - N/A   Overcast
12:36 AM 26.6 °F 16.2 °F 17.6 °F 69% 30.02 in 10.0 mi SSW 11.5 mph 18.4 mph N/A   Overcast
12:56 AM 26.6 °F 15.7 °F 17.6 °F 69% 30.01 in 4.0 mi South 12.7 mph 16.1 mph N/A Snow Light Snow
1:15 AM 26.6 °F 15.7 °F 17.6 °F 69% 30.01 in 10.0 mi SSW 12.7 mph 16.1 mph N/A   Overcast
1:36 AM 26.6 °F 19.1 °F 19.4 °F 74% 30.00 in 3.0 mi SW 6.9 mph - N/A Snow Light Snow
1:56 AM 26.6 °F 17.5 °F 19.4 °F 74% 29.99 in 4.0 mi SW 9.2 mph - N/A Snow Light Snow
2:16 AM 26.6 °F 17.5 °F 19.4 °F 74% 29.98 in 3.0 mi SW 9.2 mph - N/A Snow Light Snow
2:36 AM 26.6 °F 20.0 °F 19.4 °F 74% 29.97 in 10.0 mi SSW 5.8 mph - N/A Snow Light Snow
2:56 AM 26.6 °F 19.1 °F 19.4 °F 74% 29.97 in 4.0 mi SSW 6.9 mph - N/A Snow Light Snow
3:16 AM 26.6 °F 19.1 °F 19.4 °F 74% 29.95 in 7.0 mi SSW 6.9 mph - N/A Snow Light Snow
3:32 AM 26.6 °F 16.8 °F 19.4 °F 74% 29.95 in 7.0 mi South 10.4 mph - N/A Snow Light Snow
4:02 AM 26.6 °F - 19.4 °F 74% 29.95 in 2.5 mi Calm Calm - N/A Snow Light Snow
5:56 AM 26.6 °F 16.8 °F 21.2 °F 80% 29.95 in 0.2 mi West 10.4 mph - N/A Snow Light Snow
6:16 AM 26.6 °F 16.2 °F 19.4 °F 74% 29.95 in 0.2 mi South 11.5 mph - N/A Snow Light Snow
6:36 AM 26.6 °F 16.8 °F 21.2 °F 80% 29.94 in 7.0 mi South 10.4 mph - N/A Snow Light Snow
6:56 AM 26.6 °F 16.2 °F 21.2 °F 80% 29.94 in 7.0 mi SSW 11.5 mph - N/A Snow Light Snow
7:16 AM 26.6 °F 16.8 °F 21.2 °F 80% 29.94 in 1.2 mi South 10.4 mph - N/A Snow Light Snow
7:36 AM 26.6 °F 19.1 °F 21.2 °F 80% 29.94 in 0.8 mi South 6.9 mph - N/A Snow Light Snow
7:56 AM 26.6 °F 18.2 °F 21.2 °F 80% 29.94 in 0.8 mi West 8.1 mph - N/A Snow Snow
8:16 AM 26.6 °F 18.2 °F 21.2 °F 80% 29.94 in 1.0 mi West 8.1 mph - N/A Snow Light Snow
8:36 AM 26.6 °F 17.5 °F 21.2 °F 80% 29.94 in 2.0 mi West 9.2 mph - N/A Snow Light Snow
8:55 AM 26.6 °F - 21.2 °F 80% 29.93 in 0.8 mi Calm Calm - N/A Snow Light Snow
9:15 AM 28.4 °F 24.6 °F 23.0 °F 80% 29.93 in 1.2 mi ENE 3.5 mph - N/A Snow Light Snow
9:35 AM 28.4 °F 24.6 °F 21.2 °F 74% 29.92 in 0.8 mi WNW 3.5 mph - N/A Snow Snow
9:56 AM 26.6 °F 15.7 °F 19.4 °F 74% 29.92 in 0.5 mi WNW 12.7 mph - N/A Snow Snow
10:16 AM 24.8 °F 11.1 °F 19.4 °F 80% 29.93 in 0.2 mi West 18.4 mph - N/A Snow Heavy Snow
10:36 AM 24.8 °F 12.9 °F 19.4 °F 80% 29.93 in 0.2 mi West 13.8 mph - N/A Snow Heavy Snow
10:56 AM 24.8 °F 17.9 °F 19.4 °F 80% 29.93 in 0.2 mi West 5.8 mph 16.1 mph N/A Snow Snow
11:15 AM 24.8 °F 14.6 °F 19.4 °F 80% 29.93 in 0.5 mi West 10.4 mph - N/A Snow Snow
11:36 AM 24.8 °F 15.3 °F 19.4 °F 80% 29.93 in 0.5 mi West 9.2 mph - N/A Snow Snow
11:56 AM 26.6 °F 14.7 °F 19.4 °F 74% 29.93 in 0.5 mi West 15.0 mph - N/A Snow Light Snow
12:16 PM 24.8 °F 11.1 °F 19.4 °F 80% 29.92 in 0.2 mi West 18.4 mph 23.0 mph N/A Snow Snow
12:36 PM 24.8 °F 10.0 °F 19.4 °F 80% 29.92 in 0.2 mi West 21.9 mph - N/A Snow Light Snow
12:56 PM 24.8 °F 8.4 °F 19.4 °F 80% 29.91 in 0.2 mi West 27.6 mph 34.5 mph N/A Snow Light Snow
1:16 PM 23.0 °F - 19.4 °F 86% 29.91 in 0.2 mi North - - N/A Snow Snow
1:36 PM 23.0 °F 8.0 °F 17.6 °F 80% 29.92 in 0.2 mi West 20.7 mph 29.9 mph N/A Snow Snow
1:55 PM 23.0 °F - 17.6 °F 80% 29.92 in 0.2 mi North - - N/A Snow Snow
2:16 PM 23.0 °F 6.3 °F 17.6 °F 80% 29.93 in 0.2 mi WNW 26.5 mph - N/A Snow Snow
2:36 PM 23.0 °F 7.2 °F 17.6 °F 80% 29.93 in 0.2 mi West 23.0 mph - N/A Snow Snow
2:56 PM 23.0 °F - 17.6 °F 80% 29.94 in 0.2 mi North - - N/A Snow Snow
3:16 PM 23.0 °F 7.6 °F 17.6 °F 80% 29.95 in 0.2 mi West 21.9 mph - N/A Snow Snow
3:36 PM 23.0 °F 6.0 °F 17.6 °F 80% 29.95 in 0.2 mi WNW 27.6 mph 31.1 mph N/A Snow Snow
3:56 PM 23.0 °F 7.6 °F 17.6 °F 80% 29.96 in 0.2 mi West 21.9 mph - N/A Snow Snow
4:16 PM 23.0 °F 8.3 °F 17.6 °F 80% 29.97 in 0.2 mi West 19.6 mph - N/A Snow Snow
4:36 PM 23.0 °F 10.1 °F 17.6 °F 80% 29.97 in 0.2 mi West 15.0 mph - N/A Snow Light Snow
4:55 PM 23.0 °F 8.3 °F 17.6 °F 80% 29.98 in 0.2 mi West 19.6 mph 27.6 mph N/A Snow Snow
5:16 PM 23.0 °F 8.7 °F 17.6 °F 80% 29.99 in 0.2 mi West 18.4 mph - N/A Snow Snow
5:36 PM 23.0 °F 9.6 °F 17.6 °F 80% 29.99 in 0.5 mi West 16.1 mph - N/A   Overcast
5:56 PM 23.0 °F - 17.6 °F 80% 30.00 in 0.8 mi North - - N/A Snow Light Snow
6:16 PM 23.0 °F 11.1 °F 17.6 °F 80% 30.01 in 0.8 mi West 12.7 mph - N/A   Overcast
6:34 PM 23.0 °F 10.6 °F 17.6 °F 80% 30.01 in 0.8 mi West 13.8 mph - N/A Snow Light Snow
6:56 PM 23.0 °F 11.1 °F 17.6 °F 80% 30.02 in 0.8 mi WNW 12.7 mph 18.4 mph N/A Snow Light Snow
7:15 PM 23.0 °F 11.7 °F 17.6 °F 80% 30.02 in 1.2 mi WNW 11.5 mph - N/A Snow Light Snow
7:36 PM 23.0 °F 14.7 °F 17.6 °F 80% 30.03 in 0.5 mi WNW 6.9 mph - N/A Snow Snow
7:56 PM 19.4 °F 11.5 °F 14.0 °F 80% 30.05 in 0.2 mi North 5.8 mph 17.3 mph N/A Snow Snow
8:16 PM 19.4 °F 10.4 °F 14.0 °F 80% 30.05 in 0.5 mi North 6.9 mph - N/A Snow Snow
8:36 PM 19.4 °F 14.3 °F 14.0 °F 80% 30.06 in 0.5 mi North 3.5 mph 16.1 mph N/A Snow Snow
8:56 PM 19.4 °F 14.3 °F 14.0 °F 80% 30.07 in 1.5 mi NW 3.5 mph - N/A Snow Light Snow
9:16 PM 19.4 °F 12.8 °F 14.0 °F 80% 30.07 in 2.5 mi WNW 4.6 mph - N/A Snow Light Snow
9:36 PM 19.4 °F 11.5 °F 14.0 °F 80% 30.08 in 2.5 mi WNW 5.8 mph - N/A Snow Light Snow
9:56 PM 19.4 °F - 14.0 °F 80% 30.09 in 2.0 mi Calm Calm - N/A Snow Light Snow
10:16 PM 19.4 °F - 14.0 °F 80% 30.09 in 4.0 mi Calm Calm - N/A   Haze
10:36 PM 19.4 °F 14.3 °F 14.0 °F 80% 30.10 in 3.0 mi NW 3.5 mph - N/A Snow Light Snow
10:56 PM 19.4 °F 7.9 °F 14.0 °F 80% 30.10 in 2.5 mi West 10.4 mph - N/A Snow Light Snow
11:16 PM 19.4 °F 10.4 °F 14.0 °F 80% 30.10 in 0.2 mi WNW 6.9 mph - N/A Snow Snow
11:36 PM 19.4 °F 12.8 °F 14.0 °F 80% 30.10 in 0.2 mi WNW 4.6 mph - N/A Snow Light Snow
11:56 PM 19.4 °F 14.3 °F 14.0 °F 80% 30.10 in 0.5 mi WNW 3.5 mph - N/A Snow Light Snow